Location: Arbon
(43.0005°N, 0.7472°E)
Time: 03:39:28
(UTC+00:00)

Cosmos 1470 - Pass Details

Date: 07 August 2020
Orbit: 520 x 543 km, 82.5° (Epoch: 27 September)

Event Time Altitude Azimuth Distance (km) Brightness Sun altitude
Exits shadow 02:42:20 51° 171° (S) 684 3.0 -20.3°
Maximum altitude 02:43:15 78° 97° (E) 557 2.8 -20.2°
Drops below altitude 10° 02:47:14 10° 11° (N) 1,813 6.3 -19.7°
Sets 02:49:25 0° 10° (N) 2,713 7.3 -19.4°
